This is the latest recevied weather packets stored in our database for station/object LEAS. If no packets are shown the sender has not sent any weather packets the latest 10 day(s).
| Time | Temp. | Humidity | Pressure | Rain* | Wind** | Luminosity | Snow |
|---|---|---|---|---|---|---|---|
| 1778103904 | 12.78° C | 87% | 1014 hPa | - | - | - | - |
| 1778103004 | 12.78° C | 87% | 1014 hPa | - | - | - | - |
| 1778102104 | 12.78° C | 87% | 1014 hPa | - | - | - | - |
| 1778100305 | 12.78° C | 87% | 1014 hPa | - | - | - | - |
| 1778097605 | 13.89° C | 87% | 1014 hPa | - | - | - | - |
| 1778096704 | 13.89° C | 87% | 1014 hPa | - | - | - | - |
| 1778092204 | 13.89° C | 82% | 1014 hPa | - | - | - | - |
| 1778089504 | 15° C | 76% | 1014 hPa | - | - | - | - |
| 1778088604 | 15° C | 76% | 1014 hPa | - | - | - | - |
| 1778087704 | 15° C | 76% | 1014 hPa | - | - | - | - |
| 1778085005 | 16.11° C | 77% | 1014 hPa | - | - | - | - |
| 1778082304 | 15° C | 76% | 1014 hPa | - | - | - | - |
| 1778080504 | 15° C | 76% | 1014 hPa | - | - | - | - |
| 1778075104 | 15° C | 76% | 1015 hPa | - | - | - | - |
| 1778074204 | 15° C | 76% | 1015 hPa | - | - | - | - |
| 1778072404 | 16.11° C | 72% | 1015 hPa | - | - | - | - |
| 1778071504 | 16.11° C | 72% | 1015 hPa | - | - | - | - |
| 1778070604 | 15° C | 72% | 1015 hPa | - | - | - | - |
| 1778069705 | 15° C | 72% | 1015 hPa | - | - | - | - |
| 1778067903 | 17.22° C | 77% | 1015 hPa | - | - | - | - |
| 1778066103 | 15° C | 76% | 1015 hPa | - | - | - | - |
| 1778065205 | 16.11° C | 72% | 1015 hPa | - | - | - | - |
| 1778064304 | 16.11° C | 72% | 1015 hPa | - | - | - | - |
| 1778063405 | 13.89° C | 76% | 1015 hPa | - | - | - | - |
| 1778062505 | 13.89° C | 76% | 1015 hPa | - | - | - | - |
* Rain since midnight (hover to see other rain measurements)
** Current wind speed in m/s (hover to see current wind gust speed)